Topeka, KS

11:46 AM CDT on September 29, 2016 (GMT -0500)
Billard Municipal

Weather History for KTOP - March, 2013

Change the Weather History Date:

Thursday, March 21, 2013

  Actual Average Record
Temperature  
Mean Temperature 31 °F 47 °F  
Max Temperature 34 °F 59 °F 91 °F (1916)
Min Temperature 27 °F 35 °F 12 °F (1960)
Degree Days  
Heating Degree Days 34 18  
Month to date heating degree days 530 460  
Since 1 July heating degree days 4087 4427  
Cooling Degree Days 0 0  
Month to date cooling degree days 0 0  
Year to date cooling degree days 0 0  
Moisture  
Dew Point 21 °F    
Average Humidity 70    
Maximum Humidity 92    
Minimum Humidity 47    
Precipitation  
Precipitation T in 0.08 in 0.97 in (1932)
Month to date precipitation 1.48 1.53  
Year to date precipitation 3.92 3.71  
Snow  
Snow T in 0.00 in 7.90 in (1932)
Month to date snowfall 1.7 1.2  
Year to date snowfall 17.7 10.6  
Since 1 July snowfall 23.1 17.1  
Snow Depth 0.00 in    
Sea Level Pressure  
Sea Level Pressure 30.00 in    
Wind  
Wind Speed 11 mph (East)    
Max Wind Speed 20 mph    
Max Gust Speed 26 mph    
Visibility 8 miles    
Events Snow    
T = Trace of Precipitation, MM = Missing Value Source: NWS Daily Summary

Daily Weather History Graph

Daily Weather History Graph

Search for Another Location

Airport or City:

Trip Planner

Search our weather history database for the weather conditions in past years. The results will help you decide how hot, cold, wet, or windy it might be!

Date:

Astronomy

Mar. 21, 2013 Rise Set
Actual Time 7:23 AM CDT 7:35 PM CDT
Civil Twilight 6:57 AM CDT 8:02 PM CDT
Nautical Twilight 6:26 AM CDT 8:33 PM CDT
Astronomical Twilight 5:54 AM CDT 9:05 PM CDT
Moon 2:08 PM CDT (3/21) 3:44 AM CDT (3/21)
Length of Visible Light 13h 05m
Length of Day
12h 11m
Waxing Gibbous, 69% of the Moon is Illuminated
Mar 21
Waxing Gibbous
Mar 27
Full
Apr 2
Last Quarter
Apr 10
New
Apr 18
First Quarter

Hourly Weather History & Observations

Time (CDT) Temp. Windchill Dew Point Humidity Pressure Visibility Wind Dir Wind Speed Gust Speed Precip Events Conditions
12:53 AM 28.4 °F 24.6 °F 17.6 °F 64% 30.11 in 10.0 mi East 3.5 mph - N/A   Clear
1:53 AM 28.9 °F 21.1 °F 17.1 °F 61% 30.11 in 10.0 mi ENE 8.1 mph - N/A   Clear
2:53 AM 30.0 °F 21.1 °F 15.1 °F 54% 30.09 in 10.0 mi East 10.4 mph - N/A   Clear
3:53 AM 28.9 °F 21.1 °F 12.9 °F 51% 30.08 in 10.0 mi East 8.1 mph - N/A   Clear
4:53 AM 27.0 °F 20.5 °F 15.1 °F 61% 30.06 in 10.0 mi East 5.8 mph - N/A   Clear
5:53 AM 28.9 °F 22.8 °F 14.0 °F 54% 30.06 in 10.0 mi ESE 5.8 mph - N/A   Clear
6:53 AM 30.0 °F 21.7 °F 12.0 °F 47% 30.07 in 10.0 mi ESE 9.2 mph - N/A   Overcast
7:53 AM 28.9 °F 18.2 °F 12.0 °F 49% 30.06 in 10.0 mi East 13.8 mph - N/A   Overcast
8:53 AM 30.0 °F 18.7 °F 12.9 °F 49% 30.04 in 10.0 mi East 16.1 mph 25.3 mph N/A   Overcast
9:53 AM 28.9 °F 18.6 °F 18.0 °F 64% 30.03 in 10.0 mi East 12.7 mph - N/A   Overcast
10:53 AM 30.0 °F 20.0 °F 19.9 °F 66% 30.03 in 10.0 mi East 12.7 mph - N/A   Overcast
11:12 AM 28.9 °F 19.2 °F 21.0 °F 72% 30.00 in 1.8 mi East 11.5 mph - 0.00 in Snow Light Snow
11:36 AM 28.0 °F 18.6 °F 21.9 °F 78% 30.00 in 2.5 mi East 10.4 mph - 0.00 in Snow Light Snow
11:53 AM 28.9 °F 17.7 °F 21.9 °F 75% 30.02 in 3.0 mi East 15.0 mph - 0.00 in Snow Light Snow
12:53 PM 28.9 °F 18.6 °F 23.0 °F 78% 30.00 in 10.0 mi East 12.7 mph - 0.00 in   Overcast
1:08 PM 30.0 °F 20.0 °F 23.0 °F 75% 29.97 in 10.0 mi East 12.7 mph - N/A   Overcast
1:40 PM 30.9 °F 20.7 °F 23.0 °F 72% 29.95 in 10.0 mi East 13.8 mph - N/A   Overcast
1:53 PM 30.9 °F 20.7 °F 23.0 °F 72% 29.97 in 10.0 mi East 13.8 mph - N/A   Overcast
2:53 PM 32.0 °F 21.6 °F 24.8 °F 75% 29.92 in 10.0 mi East 15.0 mph - N/A   Overcast
3:53 PM 33.1 °F 23.0 °F 24.1 °F 70% 29.93 in 10.0 mi East 15.0 mph - N/A   Overcast
4:53 PM 32.0 °F 22.5 °F 24.1 °F 73% 29.93 in 10.0 mi East 12.7 mph - N/A   Overcast
5:53 PM 32.0 °F 23.0 °F 24.1 °F 73% 29.92 in 10.0 mi East 11.5 mph - N/A   Overcast
6:53 PM 30.9 °F 21.2 °F 24.1 °F 76% 29.94 in 10.0 mi East 12.7 mph - N/A   Overcast
7:53 PM 30.0 °F 21.1 °F 25.0 °F 82% 29.95 in 6.0 mi East 10.4 mph - N/A   Haze
8:10 PM 30.0 °F 20.5 °F 26.1 °F 85% 29.93 in 4.0 mi East 11.5 mph - N/A   Overcast
8:32 PM 30.0 °F 21.1 °F 26.1 °F 85% 29.93 in 3.0 mi ENE 10.4 mph - N/A   Overcast
8:41 PM 30.0 °F 20.5 °F 27.0 °F 88% 29.93 in 2.5 mi East 11.5 mph - N/A   Overcast
8:53 PM 30.0 °F 21.1 °F 27.0 °F 88% 29.96 in 2.5 mi ENE 10.4 mph - N/A   Overcast
9:53 PM 30.0 °F 21.1 °F 27.0 °F 88% 29.96 in 2.0 mi ENE 10.4 mph - N/A   Overcast
10:41 PM 28.9 °F 19.2 °F 27.0 °F 92% 29.94 in 3.0 mi ENE 11.5 mph - N/A   Overcast
10:53 PM 28.9 °F 21.1 °F 27.0 °F 92% 29.97 in 3.0 mi East 8.1 mph - N/A   Overcast
11:53 PM 30.0 °F 21.7 °F 27.0 °F 88% 29.97 in 3.0 mi ENE 9.2 mph - N/A   Overcast